• In Latvia
  • List of Countries
  • For 7 days
  • Water Temperature
  • Satellite Maps
  • Weather Map
  • Weather Widgets
  • user-avatar
    Login

    Hourly Weather Brisbane

    Today, 20 July, Thursday

    Time Temperature Precipitation Wind Pressure Humidity
    00:00 +11°C° 0 mm 6 mps 759 mmHg 54%
    01:00 +11°C° 0 mm 6 mps 759 mmHg 55%
    02:00 +10°C° 0 mm 6 mps 759 mmHg 57%
    03:00 +10°C° 0 mm 5 mps 760 mmHg 59%
    04:00 +9°C° 0 mm 3 mps 759 mmHg 66%
    05:00 +8°C° 0 mm 4 mps 760 mmHg 68%
    06:00 +8°C° 0 mm 4 mps 760 mmHg 69%
    07:00 +8°C° 0 mm 5 mps 761 mmHg 70%
    08:00 +12°C° 0 mm 4 mps 761 mmHg 61%
    09:00 +14°C° 0 mm 4 mps 761 mmHg 53%
    10:00 +18°C° 0 mm 2 mps 761 mmHg 43%
    11:00 +19°C° 0 mm 3 mps 760 mmHg 39%
    12:00 +21°C° 0 mm 3 mps 760 mmHg 35%
    13:00 +22°C° 0 mm 3 mps 760 mmHg 31%
    14:00 +22°C° 0 mm 3 mps 759 mmHg 33%
    15:00 +21°C° 0 mm 4 mps 759 mmHg 34%
    16:00 +20°C° 0 mm 4 mps 759 mmHg 39%
    17:00 +18°C° 0 mm 4 mps 759 mmHg 44%
    18:00 +16°C° 0 mm 5 mps 760 mmHg 48%
    19:00 +14°C° 0 mm 5 mps 760 mmHg 52%
    20:00 +13°C° 0 mm 5 mps 760 mmHg 55%
    21:00 +13°C° 0 mm 5 mps 760 mmHg 57%
    22:00 +12°C° 0 mm 5 mps 761 mmHg 59%
    23:00 +12°C° 0 mm 5 mps 761 mmHg 59%

    Tomorrow, 21 July, Friday

    Time Temperature Precipitation Wind Pressure Humidity
    00:00 +11°C° 0 mm 4 mps 761 mmHg 60%
    01:00 +11°C° 0 mm 4 mps 761 mmHg 61%
    02:00 +10°C° 0 mm 4 mps 761 mmHg 61%
    03:00 +10°C° 0 mm 4 mps 761 mmHg 61%
    04:00 +9°C° 0 mm 3 mps 761 mmHg 62%
    05:00 +9°C° 0 mm 3 mps 762 mmHg 62%
    06:00 +8°C° 0 mm 3 mps 762 mmHg 62%
    07:00 +8°C° 0 mm 3 mps 763 mmHg 62%
    08:00 +12°C° 0 mm 2 mps 763 mmHg 53%
    09:00 +14°C° 0 mm 2 mps 763 mmHg 43%
    10:00 +17°C° 0 mm 2 mps 763 mmHg 34%
    11:00 +19°C° 0 mm 2 mps 763 mmHg 30%
    12:00 +22°C° 0 mm 1 mps 762 mmHg 26%
    13:00 +23°C° 0 mm 1 mps 762 mmHg 21%
    14:00 +23°C° 0 mm 2 mps 762 mmHg 24%
    15:00 +21°C° 0 mm 2 mps 762 mmHg 27%
    16:00 +21°C° 0 mm 3 mps 762 mmHg 30%
    17:00 +18°C° 0 mm 3 mps 762 mmHg 37%
    18:00 +16°C° 0 mm 3 mps 763 mmHg 45%
    19:00 +13°C° 0 mm 3 mps 764 mmHg 53%
    20:00 +12°C° 0 mm 3 mps 764 mmHg 55%
    21:00 +12°C° 0 mm 3 mps 765 mmHg 57%
    22:00 +12°C° 0 mm 2 mps 765 mmHg 59%
    23:00 +12°C° 0 mm 2 mps 765 mmHg 60%

    Day after tomorrow, 22 July, Saturday

    Time Temperature Precipitation Wind Pressure Humidity
    00:00 +10°C° 0 mm 2 mps 765 mmHg 62%
    01:00 +10°C° 0 mm 2 mps 765 mmHg 63%
    02:00 +9°C° 0 mm 2 mps 765 mmHg 64%
    03:00 +9°C° 0 mm 2 mps 765 mmHg 64%
    04:00 +9°C° 0 mm 3 mps 765 mmHg 65%
    05:00 +9°C° 0 mm 2 mps 765 mmHg 66%
    06:00 +9°C° 0 mm 2 mps 766 mmHg 66%
    07:00 +8°C° 0 mm 2 mps 766 mmHg 67%
    08:00 +12°C° 0 mm 2 mps 766 mmHg 59%
    09:00 +15°C° 0 mm 2 mps 766 mmHg 51%
    10:00 +18°C° 0 mm 2 mps 766 mmHg 44%
    11:00 +21°C° 0 mm 1 mps 766 mmHg 40%
    12:00 +22°C° 0 mm 1 mps 765 mmHg 37%
    13:00 +24°C° 0 mm 1 mps 764 mmHg 34%
    14:00 +23°C° 0 mm 1 mps 764 mmHg 36%
    15:00 +23°C° 0 mm 1 mps 764 mmHg 38%
    16:00 +22°C° 0 mm 1 mps 764 mmHg 40%
    17:00 +20°C° 0 mm 1 mps 764 mmHg 48%
    18:00 +18°C° 0 mm 1 mps 765 mmHg 57%
    19:00 +15°C° 0 mm 2 mps 765 mmHg 65%
    20:00 +14°C° 0 mm 1 mps 765 mmHg 70%
    21:00 +14°C° 0 mm 1 mps 766 mmHg 74%
    22:00 +13°C° 0 mm 1 mps 766 mmHg 79%
    23:00 +13°C° 0 mm 1 mps 766 mmHg 81%

    23 July, Sunday

    Time Temperature Precipitation Wind Pressure Humidity
    00:00 +13°C° 0 mm 1 mps 766 mmHg 83%
    01:00 +12°C° 0 mm 1 mps 765 mmHg 85%
    02:00 +12°C° 0 mm 1 mps 765 mmHg 86%
    03:00 +12°C° 0 mm 2 mps 765 mmHg 87%
    04:00 +10°C° 0 mm 2 mps 765 mmHg 88%
    05:00 +10°C° 0 mm 2 mps 765 mmHg 88%
    06:00 +10°C° 0 mm 2 mps 766 mmHg 88%
    07:00 +10°C° 0 mm 2 mps 766 mmHg 88%
    08:00 +14°C° 0 mm 2 mps 766 mmHg 77%
    09:00 +17°C° 0 mm 2 mps 766 mmHg 66%
    10:00 +19°C° 0 mm 2 mps 766 mmHg 55%
    11:00 +21°C° 0 mm 2 mps 765 mmHg 48%
    12:00 +23°C° 0 mm 2 mps 764 mmHg 41%
    13:00 +25°C° 0 mm 2 mps 764 mmHg 34%
    14:00 +24°C° 0 mm 2 mps 763 mmHg 36%
    15:00 +24°C° 0 mm 2 mps 763 mmHg 38%
    16:00 +24°C° 0 mm 3 mps 762 mmHg 40%
    17:00 +21°C° 0 mm 3 mps 763 mmHg 47%
    18:00 +19°C° 0 mm 3 mps 763 mmHg 54%
    19:00 +17°C° 0 mm 3 mps 764 mmHg 61%
    20:00 +16°C° 0 mm 2 mps 764 mmHg 61%
    21:00 +15°C° 0 mm 2 mps 765 mmHg 61%
    22:00 +14°C° 0 mm 2 mps 765 mmHg 61%
    23:00 +14°C° 0 mm 2 mps 765 mmHg 58%

    24 July, Monday

    Time Temperature Precipitation Wind Pressure Humidity
    00:00 +13°C° 0 mm 2 mps 764 mmHg 56%
    01:00 +12°C° 0 mm 2 mps 764 mmHg 54%
    02:00 +12°C° 0 mm 2 mps 764 mmHg 53%
    03:00 +12°C° 0 mm 2 mps 764 mmHg 52%
    04:00 +10°C° 0 mm 2 mps 764 mmHg 51%
    05:00 +10°C° 0 mm 2 mps 764 mmHg 51%
    06:00 +10°C° 0 mm 3 mps 765 mmHg 51%
    07:00 +10°C° 0 mm 3 mps 765 mmHg 52%
    08:00 +13°C° 0 mm 3 mps 765 mmHg 44%
    09:00 +17°C° 0 mm 3 mps 765 mmHg 37%
    10:00 +20°C° 0 mm 3 mps 765 mmHg 30%
    11:00 +23°C° 0 mm 2 mps 764 mmHg 27%
    12:00 +25°C° 0 mm 2 mps 764 mmHg 24%
    13:00 +27°C° 0 mm 2 mps 763 mmHg 21%
    14:00 +26°C° 0 mm 2 mps 763 mmHg 23%
    15:00 +26°C° 0 mm 2 mps 763 mmHg 26%
    16:00 +26°C° 0 mm 2 mps 763 mmHg 28%
    17:00 +23°C° 0 mm 1 mps 763 mmHg 34%
    18:00 +21°C° 0 mm 1 mps 764 mmHg 39%
    19:00 +18°C° 0 mm 1 mps 764 mmHg 45%
    20:00 +18°C° 0 mm 1 mps 765 mmHg 46%
    21:00 +16°C° 0 mm 1 mps 765 mmHg 48%
    22:00 +15°C° 0 mm 2 mps 765 mmHg 49%
    23:00 +15°C° 0 mm 2 mps 765 mmHg 49%

    25 July, Tuesday

    Time Temperature Precipitation Wind Pressure Humidity
    00:00 +14°C° 0 mm 2 mps 765 mmHg 48%
    01:00 +13°C° 0 mm 3 mps 765 mmHg 48%
    02:00 +13°C° 0 mm 3 mps 765 mmHg 48%
    03:00 +13°C° 0 mm 3 mps 765 mmHg 49%
    04:00 +12°C° 0 mm 3 mps 765 mmHg 49%
    05:00 +13°C° 0 mm 2 mps 765 mmHg 50%
    06:00 +13°C° 0 mm 2 mps 766 mmHg 51%
    07:00 +13°C° 0 mm 2 mps 766 mmHg 52%
    08:00 +16°C° 0 mm 2 mps 766 mmHg 46%
    09:00 +19°C° 0 mm 2 mps 766 mmHg 40%
    10:00 +21°C° 0 mm 2 mps 767 mmHg 34%
    11:00 +24°C° 0 mm 2 mps 766 mmHg 31%
    12:00 +25°C° 0 mm 2 mps 765 mmHg 28%
    13:00 +26°C° 0 mm 1 mps 765 mmHg 25%
    14:00 +26°C° 0 mm 2 mps 764 mmHg 27%
    15:00 +25°C° 0 mm 2 mps 764 mmHg 30%
    16:00 +25°C° 0 mm 2 mps 764 mmHg 33%
    17:00 +23°C° 0 mm 2 mps 764 mmHg 40%
    18:00 +19°C° 0 mm 2 mps 765 mmHg 48%
    19:00 +18°C° 0 mm 1 mps 765 mmHg 55%
    20:00 +16°C° 0 mm 1 mps 766 mmHg 58%
    21:00 +16°C° 0 mm 1 mps 766 mmHg 61%
    22:00 +15°C° 0 mm 1 mps 766 mmHg 65%
    23:00 +14°C° 0 mm 1 mps 766 mmHg 66%
    Show more